Location: Coors Field
(39.7564°N, 104.9943°W)
Time: 12:16:03
(UTC-06:00)

ISS - Visible Passes

Search period start: 25 July 2014 00:00
Search period end: 04 August 2014 00:00
Orbit: 411 x 420 km, 51.6° (Epoch: 25 July)

Date Brightness Start Highest point End Pass type
(mag) Time Alt. Az. Time Alt. Az. Time Alt. Az.
25 Jul 0.1 01:47:14 10° NE 01:47:14 10° NE 01:47:17 10° NE visible
25 Jul -0.7 03:20:05 15° NW 03:21:08 16° NNW 03:23:22 10° NNE visible
25 Jul -0.2 04:57:57 10° NNW 04:58:58 11° N 04:59:58 10° NNE visible
26 Jul -0.6 02:32:57 20° N 02:32:57 20° N 02:34:49 10° NNE visible
26 Jul -0.2 04:08:51 10° NNW 04:09:53 11° N 04:10:54 10° NNE visible
27 Jul 0.0 01:45:48 13° NNE 01:45:48 13° NNE 01:46:15 10° NE visible
27 Jul -0.2 03:19:26 10° NNW 03:20:48 12° N 03:22:11 10° NNE visible
27 Jul -0.2 04:56:59 10° NNW 04:58:42 13° NNE 05:00:24 10° NE visible
28 Jul -0.3 02:31:32 14° NNW 02:31:47 14° NNW 02:33:37 10° NNE visible
28 Jul -0.1 04:08:24 10° NNW 04:09:39 12° N 04:10:55 10° NNE visible
29 Jul 0.1 01:44:24 13° NNE 01:44:24 13° NNE 01:45:06 10° NNE visible
29 Jul 0.0 03:19:38 10° NNW 03:20:36 11° N 03:21:35 10° NNE visible
29 Jul -0.4 04:55:49 10° NNW 04:58:22 20° NNE 05:00:54 10° ENE visible
30 Jul 0.0 02:30:30 10° NNW 02:31:34 11° N 02:32:38 10° NNE visible
30 Jul -0.2 04:07:19 10° NNW 04:09:25 15° NNE 04:11:31 10° NE visible
31 Jul 0.2 01:43:09 12° N 01:43:09 12° N 01:44:00 10° NNE visible
31 Jul 0.0 03:18:49 10° NNW 03:20:26 13° NNE 03:22:03 10° NE visible
31 Jul -1.6 04:54:45 10° NW 04:57:55 37° NNE 05:01:03 10° E visible
01 Aug 0.1 02:30:15 10° NNW 02:31:26 11° N 02:32:37 10° NNE visible
01 Aug -0.9 04:06:13 10° NNW 04:09:05 25° NNE 04:11:57 10° E visible
02 Aug 0.3 01:42:36 11° N 01:42:36 11° N 01:43:24 10° NNE visible
02 Aug -0.4 03:17:45 10° NNW 03:20:13 19° NNE 03:22:41 10° ENE visible
02 Aug -3.4 04:53:56 10° NW 04:57:18 83° SW 05:00:39 10° SE visible
02 Aug -3.2 21:35:40 10° SSW 21:38:53 49° SE 21:42:03 11° ENE visible
02 Aug -0.8 23:13:00 10° W 23:15:12 23° NW 23:15:12 23° NW visible
03 Aug -0.1 02:30:09 13° N 02:31:19 15° NNE 02:33:19 10° NE visible
03 Aug -2.6 04:05:18 10° NW 04:08:37 56° NE 04:11:55 10° ESE visible
03 Aug -2.3 20:47:29 10° SSW 20:50:20 27° SE 20:53:12 10° ENE visible
03 Aug -1.6 22:23:54 10° W 22:26:58 34° NNW 22:30:05 10° NE visible
